This is the latest recevied weather packets stored in our database for station/object W1QED. If no packets are shown the sender has not sent any weather packets the latest 1 day(s).
| Time | Temp. | Humidity | Pressure | Rain* | Wind** | Luminosity | Snow |
|---|---|---|---|---|---|---|---|
| 1778087136 | 20° C | 50% | 1006.7 hPa | 0 mm | - | - | - |
| 1778086535 | 20° C | 49% | 1006.6 hPa | 0 mm | - | - | - |
| 1778086233 | 20.56° C | 50% | 1006.7 hPa | 0 mm | - | - | - |
| 1778085330 | 20.56° C | 49% | 1006.8 hPa | 0 mm | - | - | - |
| 1778085034 | 20.56° C | 49% | 1006.9 hPa | 0 mm | - | - | - |
| 1778084728 | 20.56° C | 49% | 1007 hPa | 0 mm | - | - | - |
| 1778084126 | 20.56° C | 48% | 1007.1 hPa | 0 mm | - | - | - |
| 1778083223 | 20.56° C | 50% | 1007.4 hPa | 0 mm | - | - | - |
| 1778082320 | 20.56° C | 49% | 1007.7 hPa | 0 mm | - | - | - |
| 1778081116 | 20° C | 52% | 1007.9 hPa | 0 mm | - | - | - |
| 1778080210 | 20° C | 53% | 1008.1 hPa | 0 mm | - | - | - |
| 1778079911 | 20° C | 53% | 1008.1 hPa | 0 mm | - | - | - |
| 1778079309 | 20° C | 53% | 1008.4 hPa | 0 mm | - | - | - |
| 1778079008 | 20° C | 53% | 1008.2 hPa | 0 mm | - | - | - |
| 1778078708 | 20° C | 53% | 1008 hPa | 0 mm | - | - | - |
| 1778076902 | 19.44° C | 55% | 1008.2 hPa | 0 mm | - | - | - |
| 1778076360 | 19.44° C | 56% | 1008.1 hPa | 0 mm | - | - | - |
| 1778074553 | 18.33° C | 58% | 1008.3 hPa | 0 mm | - | - | - |
| 1778073653 | 18.33° C | 59% | 1008.4 hPa | 0 mm | - | - | - |
| 1778073365 | 18.33° C | 59% | 1008.5 hPa | 0 mm | - | - | - |
| 1778073050 | 17.78° C | 59% | 1008.6 hPa | 0 mm | - | - | - |
| 1778072749 | 17.78° C | 59% | 1008.7 hPa | 0 mm | - | - | - |
| 1778070943 | 18.33° C | 58% | 1008.8 hPa | 0 mm | - | - | - |
| 1778070642 | 18.33° C | 57% | 1008.8 hPa | 0 mm | - | - | - |
| 1778069137 | 17.78° C | 59% | 1008.6 hPa | 0 mm | - | - | - |
* Rain latest hour (hover to see other rain measurements)
** Current wind speed in m/s (hover to see current wind gust speed)